TimeCDT,TemperatureF,Dew PointF,Humidity,Sea Level PressureIn,VisibilityMPH,Wind Direction,Wind SpeedMPH,Gust SpeedMPH,PrecipitationIn,Events,Conditions,WindDirDegrees,DateUTC
12:15 AM,78.8,59.0,51,29.87,10.0,South,13.8,-,N/A,,Clear,190,2014-08-20 05:15:00
12:35 AM,78.8,59.0,51,29.87,10.0,South,13.8,-,N/A,,Clear,190,2014-08-20 05:35:00
12:55 AM,77.0,59.0,54,29.87,10.0,SSW,12.7,-,N/A,,Clear,200,2014-08-20 05:55:00
1:15 AM,77.0,59.0,54,29.87,10.0,South,12.7,-,N/A,,Clear,190,2014-08-20 06:15:00
1:35 AM,77.0,59.0,54,29.87,10.0,South,13.8,-,N/A,,Clear,190,2014-08-20 06:35:00
1:55 AM,75.2,59.0,57,29.87,10.0,SSW,11.5,-,N/A,,Clear,200,2014-08-20 06:55:00
2:15 AM,73.4,60.8,65,29.86,10.0,South,10.4,-,N/A,,Clear,190,2014-08-20 07:15:00
2:35 AM,73.4,60.8,65,29.86,10.0,South,10.4,-,N/A,,Clear,190,2014-08-20 07:35:00
2:55 AM,73.4,60.8,65,29.86,10.0,South,10.4,-,N/A,,Clear,190,2014-08-20 07:55:00
3:15 AM,71.6,60.8,69,29.86,10.0,South,12.7,-,N/A,,Clear,190,2014-08-20 08:15:00
3:35 AM,71.6,60.8,69,29.86,10.0,South,11.5,-,N/A,,Clear,190,2014-08-20 08:35:00
3:55 AM,71.6,60.8,69,29.86,10.0,South,10.4,-,N/A,,Clear,190,2014-08-20 08:55:00
4:15 AM,71.6,60.8,69,29.86,10.0,SSW,10.4,-,N/A,,Clear,200,2014-08-20 09:15:00
4:35 AM,69.8,60.8,73,29.86,10.0,South,9.2,-,N/A,,Clear,190,2014-08-20 09:35:00
4:55 AM,69.8,60.8,73,29.85,10.0,South,10.4,-,N/A,,Clear,190,2014-08-20 09:55:00
5:15 AM,69.8,60.8,73,29.85,10.0,South,10.4,-,N/A,,Clear,190,2014-08-20 10:15:00
5:35 AM,69.8,60.8,73,29.85,10.0,South,10.4,-,N/A,,Clear,190,2014-08-20 10:35:00
5:55 AM,69.8,60.8,73,29.85,10.0,South,9.2,-,N/A,,Clear,190,2014-08-20 10:55:00
6:15 AM,68.0,60.8,78,29.85,10.0,South,10.4,-,N/A,,Clear,190,2014-08-20 11:15:00
6:35 AM,69.8,62.6,78,29.86,10.0,South,10.4,-,N/A,,Clear,190,2014-08-20 11:35:00
6:55 AM,69.8,62.6,78,29.86,10.0,South,8.1,-,N/A,,Clear,180,2014-08-20 11:55:00
7:15 AM,69.8,62.6,78,29.86,10.0,South,9.2,-,N/A,,Clear,180,2014-08-20 12:15:00
7:35 AM,71.6,62.6,73,29.86,10.0,South,9.2,-,N/A,,Clear,180,2014-08-20 12:35:00
7:55 AM,71.6,62.6,73,29.86,10.0,South,10.4,-,N/A,,Clear,180,2014-08-20 12:55:00
8:15 AM,73.4,62.6,69,29.86,10.0,South,12.7,-,N/A,,Clear,190,2014-08-20 13:15:00
8:35 AM,75.2,62.6,65,29.86,10.0,South,12.7,-,N/A,,Clear,190,2014-08-20 13:35:00
8:55 AM,77.0,62.6,61,29.87,10.0,South,15.0,-,N/A,,Clear,190,2014-08-20 13:55:00
9:15 AM,77.0,62.6,61,29.87,10.0,South,15.0,-,N/A,,Scattered Clouds,190,2014-08-20 14:15:00
9:35 AM,78.8,62.6,57,29.86,10.0,South,16.1,21.9,N/A,,Scattered Clouds,190,2014-08-20 14:35:00
9:55 AM,80.6,62.6,54,29.86,10.0,South,16.1,20.7,N/A,,Scattered Clouds,180,2014-08-20 14:55:00
10:15 AM,80.6,62.6,54,29.87,10.0,South,18.4,-,N/A,,Clear,190,2014-08-20 15:15:00
10:35 AM,82.4,62.6,51,29.87,10.0,SSW,18.4,-,N/A,,Clear,200,2014-08-20 15:35:00
10:55 AM,82.4,62.6,51,29.87,10.0,SSW,19.6,25.3,N/A,,Clear,200,2014-08-20 15:55:00
11:15 AM,84.2,62.6,48,29.87,10.0,SSW,18.4,23.0,N/A,,Clear,210,2014-08-20 16:15:00
11:35 AM,87.8,62.6,43,29.87,10.0,SSW,19.6,23.0,N/A,,Clear,200,2014-08-20 16:35:00
11:55 AM,87.8,62.6,43,29.87,10.0,South,16.1,23.0,N/A,,Clear,190,2014-08-20 16:55:00
12:15 PM,89.6,62.6,40,29.86,10.0,SSW,17.3,21.9,N/A,,Clear,200,2014-08-20 17:15:00
12:35 PM,89.6,62.6,40,29.86,10.0,SSW,19.6,-,N/A,,Clear,200,2014-08-20 17:35:00
12:55 PM,91.4,62.6,38,29.86,10.0,South,19.6,23.0,N/A,,Clear,180,2014-08-20 17:55:00
1:15 PM,91.4,60.8,36,29.85,10.0,South,15.0,26.5,N/A,,Clear,170,2014-08-20 18:15:00
1:35 PM,93.2,60.8,34,29.85,10.0,South,19.6,26.5,N/A,,Clear,180,2014-08-20 18:35:00
1:55 PM,93.2,60.8,34,29.84,10.0,South,23.0,27.6,N/A,,Clear,170,2014-08-20 18:55:00
2:15 PM,93.2,60.8,34,29.84,10.0,South,19.6,31.1,N/A,,Clear,190,2014-08-20 19:15:00
2:35 PM,95.0,60.8,32,29.83,10.0,South,21.9,28.8,N/A,,Clear,190,2014-08-20 19:35:00
2:55 PM,93.2,60.8,34,29.83,10.0,South,20.7,28.8,N/A,,Clear,190,2014-08-20 19:55:00
3:15 PM,95.0,59.0,30,29.82,10.0,South,19.6,27.6,N/A,,Clear,190,2014-08-20 20:15:00
3:55 PM,95.0,59.0,30,29.81,10.0,SSW,21.9,29.9,N/A,,Clear,200,2014-08-20 20:55:00
4:15 PM,95.0,59.0,30,29.81,10.0,South,20.7,32.2,N/A,,Clear,180,2014-08-20 21:15:00
4:35 PM,96.8,59.0,28,29.81,10.0,SSW,17.3,27.6,N/A,,Clear,200,2014-08-20 21:35:00
4:55 PM,96.8,57.2,27,29.80,10.0,South,24.2,31.1,N/A,,Clear,180,2014-08-20 21:55:00
5:15 PM,95.0,57.2,28,29.81,10.0,South,25.3,28.8,N/A,,Scattered Clouds,190,2014-08-20 22:15:00
5:35 PM,96.8,57.2,27,29.81,10.0,South,21.9,28.8,N/A,,Clear,190,2014-08-20 22:35:00
5:55 PM,95.0,55.4,26,29.80,10.0,SSW,20.7,31.1,N/A,,Clear,200,2014-08-20 22:55:00
6:15 PM,95.0,55.4,26,29.80,10.0,South,21.9,27.6,N/A,,Clear,190,2014-08-20 23:15:00
6:35 PM,95.0,55.4,26,29.80,10.0,South,21.9,29.9,N/A,,Clear,190,2014-08-20 23:35:00
6:55 PM,93.2,55.4,28,29.80,10.0,South,24.2,29.9,N/A,,Clear,190,2014-08-20 23:55:00
7:15 PM,93.2,55.4,28,29.80,10.0,South,23.0,28.8,N/A,,Clear,180,2014-08-21 00:15:00
7:35 PM,91.4,55.4,29,29.79,10.0,South,18.4,-,N/A,,Clear,180,2014-08-21 00:35:00
7:55 PM,89.6,55.4,31,29.80,10.0,South,16.1,-,N/A,,Clear,190,2014-08-21 00:55:00
8:15 PM,89.6,55.4,31,29.81,10.0,South,15.0,-,N/A,,Clear,190,2014-08-21 01:15:00
8:35 PM,87.8,55.4,33,29.81,10.0,South,15.0,-,N/A,,Clear,190,2014-08-21 01:35:00
8:55 PM,87.8,55.4,33,29.81,10.0,South,13.8,-,N/A,,Clear,180,2014-08-21 01:55:00
9:15 PM,87.8,55.4,33,29.82,10.0,South,15.0,-,N/A,,Clear,180,2014-08-21 02:15:00
9:35 PM,87.8,55.4,33,29.83,10.0,South,13.8,18.4,N/A,,Clear,170,2014-08-21 02:35:00
9:55 PM,86.0,55.4,35,29.83,10.0,South,15.0,19.6,N/A,,Clear,170,2014-08-21 02:55:00
10:15 PM,86.0,55.4,35,29.84,10.0,South,15.0,24.2,N/A,,Clear,170,2014-08-21 03:15:00
10:35 PM,84.2,57.2,40,29.85,10.0,SSE,15.0,21.9,N/A,,Clear,160,2014-08-21 03:35:00
10:55 PM,82.4,59.0,45,29.85,10.0,South,13.8,24.2,N/A,,Clear,170,2014-08-21 03:55:00
11:15 PM,82.4,59.0,45,29.86,10.0,South,18.4,23.0,N/A,,Clear,170,2014-08-21 04:15:00
11:35 PM,82.4,57.2,42,29.86,10.0,South,23.0,27.6,N/A,,Clear,180,2014-08-21 04:35:00
11:55 PM,82.4,57.2,42,29.86,10.0,South,23.0,29.9,N/A,,Clear,180,2014-08-21 04:55:00